OEKAF LOWL-LOWS

Flight info

Callsign OEKAF
Flight time 0h 32m
Altitude 8000
Route LIDSI DCT MATIG MATIG2R
Aircraft C182/L-SDGRY/S

Departure

Time 2026-05-06 18:18
Airport Linz-Hörsching Airport (LOWL)

Arrival

Time 2026-05-06 18:50
Airport Salzburg Airport (LOWS)
Time Latitude Longitude Altitude Speed Heading
2026-05-06 18:07 48.23881 14.18815 981 ft 0 kts 266°
2026-05-06 18:14 48.23879 14.18803 985 ft 6 kts 245°
2026-05-06 18:14 48.23808 14.18789 985 ft 13 kts 176°
2026-05-06 18:15 48.23747 14.18866 983 ft 15 kts 92°
2026-05-06 18:15 48.23749 14.19041 981 ft 18 kts 88°
2026-05-06 18:15 48.23754 14.19180 982 ft 22 kts 86°
2026-05-06 18:15 48.23767 14.19506 981 ft 19 kts 89°
2026-05-06 18:16 48.23748 14.19594 984 ft 12 kts 142°
2026-05-06 18:16 48.23669 14.19644 980 ft 15 kts 159°
2026-05-06 18:16 48.23566 14.19706 980 ft 17 kts 160°
2026-05-06 18:16 48.23436 14.19773 983 ft 22 kts 164°
2026-05-06 18:17 48.23351 14.19731 980 ft 9 kts 263°
2026-05-06 18:17 48.23347 14.19637 981 ft 18 kts 265°
2026-05-06 18:17 48.23336 14.19392 984 ft 43 kts 268°
2026-05-06 18:17 48.23322 14.18763 1109 ft 68 kts 264°
2026-05-06 18:18 48.23295 14.18041 1345 ft 71 kts 263°
2026-05-06 18:18 48.23267 14.17281 1585 ft 74 kts 263°
2026-05-06 18:18 48.23238 14.16510 1821 ft 73 kts 263°
2026-05-06 18:18 48.23208 14.15744 2051 ft 75 kts 261°
2026-05-06 18:19 48.23179 14.14970 2269 ft 74 kts 260°
2026-05-06 18:19 48.23151 14.14205 2507 ft 73 kts 260°
2026-05-06 18:19 48.23123 14.13432 2725 ft 77 kts 260°
2026-05-06 18:19 48.23095 14.12625 2956 ft 78 kts 261°
2026-05-06 18:20 48.23066 14.11785 3185 ft 83 kts 261°
2026-05-06 18:20 48.23036 14.10899 3420 ft 87 kts 261°
2026-05-06 18:20 48.23005 14.09964 3660 ft 92 kts 262°
2026-05-06 18:20 48.22971 14.08982 3901 ft 96 kts 262°
2026-05-06 18:21 48.22937 14.07963 4139 ft 100 kts 262°
2026-05-06 18:21 48.22900 14.06907 4379 ft 103 kts 263°
2026-05-06 18:21 48.22863 14.05825 4585 ft 105 kts 262°
2026-05-06 18:21 48.22825 14.04718 4814 ft 107 kts 263°
2026-05-06 18:22 48.22785 14.03598 5057 ft 107 kts 263°
2026-05-06 18:22 48.22746 14.02485 5306 ft 107 kts 263°
2026-05-06 18:22 48.22706 14.01374 5541 ft 106 kts 263°
2026-05-06 18:22 48.22666 14.00265 5803 ft 107 kts 263°
2026-05-06 18:23 48.22626 13.99169 6065 ft 107 kts 263°
2026-05-06 18:23 48.22586 13.98067 6301 ft 106 kts 263°
2026-05-06 18:23 48.22544 13.96965 6542 ft 106 kts 263°
2026-05-06 18:23 48.22505 13.95864 6776 ft 105 kts 263°
2026-05-06 18:24 48.22464 13.94748 6978 ft 109 kts 263°
2026-05-06 18:24 48.22422 13.93598 7177 ft 112 kts 264°
2026-05-06 18:24 48.22379 13.92420 7383 ft 115 kts 264°
2026-05-06 18:24 48.22336 13.91234 7584 ft 117 kts 264°
2026-05-06 18:25 48.22271 13.90016 7786 ft 117 kts 256°
2026-05-06 18:25 48.21920 13.88937 7972 ft 115 kts 234°
2026-05-06 18:25 48.21439 13.87901 7981 ft 126 kts 236°
2026-05-06 18:25 48.20933 13.86794 7986 ft 132 kts 236°
2026-05-06 18:26 48.20409 13.85650 7989 ft 134 kts 236°
2026-05-06 18:26 48.19875 13.84487 7988 ft 136 kts 236°
2026-05-06 18:26 48.19337 13.83317 7988 ft 136 kts 236°
2026-05-06 18:26 48.18797 13.82142 7981 ft 137 kts 236°
2026-05-06 18:27 48.18255 13.80963 7983 ft 137 kts 236°
2026-05-06 18:27 48.17714 13.79788 7983 ft 137 kts 236°
2026-05-06 18:27 48.17175 13.78619 7993 ft 136 kts 234°
2026-05-06 18:27 48.16650 13.77479 7994 ft 134 kts 234°
2026-05-06 18:28 48.16123 13.76333 7992 ft 133 kts 234°
2026-05-06 18:28 48.15600 13.75198 7990 ft 132 kts 234°
2026-05-06 18:28 48.15076 13.74062 7990 ft 132 kts 234°
2026-05-06 18:28 48.14552 13.72926 7989 ft 132 kts 234°
2026-05-06 18:29 48.14031 13.71797 7989 ft 132 kts 234°
2026-05-06 18:29 48.13509 13.70667 7989 ft 132 kts 234°
2026-05-06 18:29 48.12988 13.69539 7989 ft 132 kts 234°
2026-05-06 18:29 48.12465 13.68408 7992 ft 132 kts 234°
2026-05-06 18:30 48.11944 13.67280 7986 ft 131 kts 234°
2026-05-06 18:30 48.11428 13.66164 7990 ft 131 kts 234°
2026-05-06 18:30 48.10906 13.65035 7989 ft 132 kts 234°
2026-05-06 18:30 48.10382 13.63905 7989 ft 132 kts 234°
2026-05-06 18:31 48.09857 13.62772 8010 ft 133 kts 234°
2026-05-06 18:31 48.09331 13.61636 8005 ft 132 kts 234°
2026-05-06 18:31 48.08813 13.60517 8007 ft 133 kts 234°
2026-05-06 18:31 48.08287 13.59384 8010 ft 133 kts 234°
2026-05-06 18:32 48.07762 13.58251 8006 ft 132 kts 235°
2026-05-06 18:32 48.07236 13.57117 8006 ft 133 kts 235°
2026-05-06 18:32 48.06709 13.55983 8020 ft 133 kts 234°
2026-05-06 18:32 48.06183 13.54848 8020 ft 132 kts 235°
2026-05-06 18:33 48.05816 13.53592 8018 ft 134 kts 255°
2026-05-06 18:33 48.05699 13.52201 8018 ft 135 kts 260°
2026-05-06 18:33 48.05582 13.50812 8022 ft 135 kts 259°
2026-05-06 18:33 48.05465 13.49416 8023 ft 136 kts 259°
2026-05-06 18:34 48.05348 13.48019 8023 ft 135 kts 259°
2026-05-06 18:34 48.05231 13.46623 8022 ft 135 kts 259°
2026-05-06 18:34 48.05116 13.45236 8024 ft 134 kts 259°
2026-05-06 18:34 48.05000 13.43849 8025 ft 134 kts 259°
2026-05-06 18:35 48.04881 13.42442 7926 ft 141 kts 259°
2026-05-06 18:35 48.04746 13.40967 7728 ft 147 kts 256°
2026-05-06 18:35 48.04480 13.39490 7535 ft 146 kts 251°
2026-05-06 18:35 48.04211 13.38026 7372 ft 146 kts 253°
2026-05-06 18:36 48.03957 13.36568 7246 ft 144 kts 253°
2026-05-06 18:36 48.03712 13.35132 7121 ft 142 kts 253°
2026-05-06 18:36 48.03468 13.33701 6996 ft 142 kts 253°
2026-05-06 18:36 48.03226 13.32277 6873 ft 141 kts 253°
2026-05-06 18:37 48.02985 13.30863 6749 ft 140 kts 253°
2026-05-06 18:37 48.02743 13.29443 6630 ft 141 kts 253°
2026-05-06 18:37 48.02500 13.28020 6515 ft 141 kts 253°
2026-05-06 18:37 48.02260 13.26611 6396 ft 139 kts 252°
2026-05-06 18:38 48.02023 13.25229 6282 ft 136 kts 252°
2026-05-06 18:38 48.01790 13.23862 6157 ft 135 kts 252°
2026-05-06 18:38 48.01559 13.22505 6029 ft 134 kts 252°
2026-05-06 18:38 48.01331 13.21180 5906 ft 134 kts 253°
2026-05-06 18:39 48.01097 13.19826 5771 ft 134 kts 254°
2026-05-06 18:39 48.00867 13.18476 5674 ft 134 kts 253°
2026-05-06 18:39 48.00635 13.17132 5547 ft 134 kts 254°
2026-05-06 18:40 48.00174 13.14446 5297 ft 134 kts 254°
2026-05-06 18:40 47.99942 13.13099 5170 ft 134 kts 255°
2026-05-06 18:40 47.99712 13.11764 5045 ft 132 kts 255°
2026-05-06 18:40 47.99486 13.10448 4981 ft 129 kts 255°
2026-05-06 18:41 47.99265 13.09169 4973 ft 125 kts 255°
2026-05-06 18:41 47.99050 13.07922 4985 ft 122 kts 254°
2026-05-06 18:41 47.98840 13.06704 4986 ft 120 kts 254°
2026-05-06 18:41 47.98631 13.05497 4985 ft 120 kts 255°
2026-05-06 18:42 47.98422 13.04296 4987 ft 118 kts 253°
2026-05-06 18:42 47.98077 13.03213 4990 ft 116 kts 235°
2026-05-06 18:42 47.97485 13.02382 4994 ft 122 kts 218°
2026-05-06 18:42 47.96678 13.01912 4994 ft 128 kts 197°
2026-05-06 18:43 47.95769 13.01954 5000 ft 135 kts 176°
2026-05-06 18:43 47.94852 13.02253 5001 ft 135 kts 176°
2026-05-06 18:43 47.93928 13.02533 4998 ft 135 kts 177°
2026-05-06 18:43 47.93012 13.02812 4996 ft 134 kts 175°
2026-05-06 18:44 47.92106 13.03092 4996 ft 133 kts 175°
2026-05-06 18:44 47.91203 13.03367 4992 ft 132 kts 175°
2026-05-06 18:44 47.90294 13.03649 4998 ft 135 kts 177°
2026-05-06 18:44 47.89360 13.03931 5000 ft 138 kts 176°
2026-05-06 18:45 47.88412 13.04221 5002 ft 139 kts 177°
2026-05-06 18:45 47.87478 13.04506 5001 ft 138 kts 177°
2026-05-06 18:45 47.86524 13.04797 4904 ft 142 kts 176°
2026-05-06 18:45 47.85867 13.04998 4839 ft 143 kts 176°
2026-05-06 18:46 47.84562 13.05397 4686 ft 148 kts 177°
2026-05-06 18:46 47.83530 13.05709 4459 ft 153 kts 176°
2026-05-06 18:46 47.82477 13.06035 4239 ft 155 kts 176°
2026-05-06 18:46 47.81419 13.06358 4036 ft 155 kts 176°
2026-05-06 18:47 47.80400 13.06671 3990 ft 142 kts 178°
2026-05-06 18:47 47.79439 13.06963 3989 ft 139 kts 179°
2026-05-06 18:47 47.78472 13.07250 3853 ft 145 kts 179°
2026-05-06 18:47 47.77491 13.07165 3665 ft 137 kts 205°
2026-05-06 18:48 47.76690 13.06516 3520 ft 126 kts 233°
2026-05-06 18:48 47.76411 13.05421 3288 ft 111 kts 273°
2026-05-06 18:48 47.76447 13.04271 2791 ft 105 kts 272°
2026-05-06 18:48 47.76562 13.03261 2374 ft 94 kts 284°
2026-05-06 18:49 47.76793 13.02423 2021 ft 83 kts 300°
2026-05-06 18:49 47.77164 13.01801 1794 ft 77 kts 307°
2026-05-06 18:49 47.77645 13.01463 1617 ft 72 kts 331°
2026-05-06 18:49 47.78038 13.01213 1514 ft 56 kts 327°
2026-05-06 18:50 47.78375 13.01004 1432 ft 50 kts 325°
2026-05-06 18:50 47.78675 13.00810 1415 ft 43 kts 329°
2026-05-06 18:50 47.78892 13.00659 1414 ft 30 kts 336°
2026-05-06 18:50 47.79064 13.00556 1416 ft 23 kts 331°
2026-05-06 18:51 47.79114 13.00424 1414 ft 12 kts 276°
2026-05-06 18:51 47.79123 13.00311 1414 ft 14 kts 279°
2026-05-06 18:51 47.79204 13.00206 1415 ft 18 kts 336°
2026-05-06 18:51 47.79339 13.00120 1415 ft 21 kts 337°
2026-05-06 18:52 47.79452 13.00063 1415 ft 12 kts 339°
2026-05-06 18:52 47.79544 12.99986 1415 ft 16 kts 322°
2026-05-06 18:52 47.79547 12.99877 1415 ft 10 kts 257°
2026-05-06 18:52 47.79535 12.99787 1415 ft 8 kts 263°
2026-05-06 18:53 47.79540 12.99748 1415 ft 2 kts 332°
2026-05-06 18:53 47.79548 12.99743 1415 ft 0 kts 337°
2026-05-06 18:53 47.79549 12.99743 1415 ft 0 kts 337°